Overview Statistics Trail Chart Weather Telemetry Raw packets
 

This is the latest recevied weather packets stored in our database for station/object KO6HRZ. If no packets are shown the sender has not sent any weather packets the latest 10 day(s).

<< 17 18 19 20 21 22 23 >>
Time Temp. Humidity Pressure Rain* Wind** Luminosity Snow
1788407788 20.56° C 64% 1013.6 hPa 0 mm - 0 W/m² -
1788407184 20.56° C 63% 1013.6 hPa 0 mm - 0 W/m² -
1788406580 21.11° C 62% 1013.5 hPa 0 mm - 0 W/m² -
1788405975 21.11° C 60% 1013.1 hPa 0 mm - 0 W/m² -
1788405372 21.11° C 59% 1013.2 hPa 0 mm - 0 W/m² -
1788404768 21.67° C 58% 1013.2 hPa 0 mm - 0 W/m² -
1788404164 21.67° C 56% 1013.3 hPa 0 mm - 0 W/m² -
1788403561 22.22° C 55% 1013.3 hPa 0 mm - 1 W/m² -
1788402956 22.22° C 54% 1013.3 hPa 0 mm - 3 W/m² -
1788402357 22.78° C 53% 1013.4 hPa 0 mm - 7 W/m² -
1788401756 22.78° C 52% 1013.4 hPa 0 mm - 13 W/m² -
1788401152 23.33° C 52% 1013.4 hPa 0 mm - 18 W/m² -
1788400548 23.33° C 52% 1013.5 hPa 0 mm - 24 W/m² -
1788399948 23.89° C 53% 1013.5 hPa 0 mm - 29 W/m² -
1788399343 24.44° C 53% 1013.7 hPa 0 mm - 33 W/m² -
1788398743 24.44° C 52% 1013.5 hPa 0 mm - 109 W/m² -
1788398142 25° C 52% 1013.6 hPa 0 mm - 80 W/m² -
1788397539 25.56° C 52% 1013.8 hPa 0 mm - 62 W/m² -
1788396937 26.11° C 51% 1013.7 hPa 0 mm - 59 W/m² -
1788396332 26.11° C 52% 1013.6 hPa 0 mm - 52 W/m² -
1788395729 26.11° C 53% 1013.8 hPa 0 mm - 97 W/m² -
1788395124 26.67° C 52% 1013.9 hPa 0 mm - 121 W/m² -
1788394520 26.67° C 52% 1013.9 hPa 0 mm - 209 W/m² -
1788393915 26.67° C 52% 1013.8 hPa 0 mm - 145 W/m² -
1788393314 26.67° C 51% 1014 hPa 0 mm - 117 W/m² -

* Rain latest hour (hover to see other rain measurements)
** Current wind speed in m/s (hover to see current wind gust speed)